Location: STAR School
(35.3054°N, 111.2976°W)
Time: 23:12:54
(UTC-07:00)

N. Korean satellite - Pass Details

Date: 23 October 2019
Orbit: 456 x 506 km, 97.2° (Epoch: 17 November)

Event Time Altitude Azimuth Distance (km) Brightness Sun altitude
Rises 18:04:22 0° 187° (S) 2,453 10.4 -5.6°
Reaches altitude 10° 18:06:32 10° 198° (SSW) 1,587 9.6 -6.1°
Maximum altitude 18:09:36 31° 262° (W) 822 8.7 -6.7°
Drops below altitude 10° 18:12:43 10° 327° (NNW) 1,609 9.5 -7.3°
Sets 18:14:56 0° 338° (NNW) 2,496 10.4 -7.8°
